Time,TemperatureF,DewpointF,PressureIn,WindDirection,WindDirectionDegrees,WindSpeedMPH,WindSpeedGustMPH,Humidity,HourlyPrecipIn,Conditions,Clouds,dailyrainin,SoftwareType,DateUTC
2013-04-12 00:00:00,42.0,37.8,30.19,WNW,283,0.0,0.0,85,0.00,,---,0.00,VWS V14.01,2013-04-12 07:00:00,
2013-04-12 00:05:00,41.7,37.5,30.18,WNW,283,0.0,0.0,85,0.00,,---,0.00,VWS V14.01,2013-04-12 07:05:00,
2013-04-12 00:10:00,41.5,37.6,30.18,WNW,283,0.0,0.0,86,0.00,,---,0.00,VWS V14.01,2013-04-12 07:10:00,
2013-04-12 00:15:00,41.2,37.3,30.18,WNW,283,0.0,0.0,86,0.00,,---,0.00,VWS V14.01,2013-04-12 07:15:00,
2013-04-12 00:20:00,41.1,37.5,30.18,WNW,282,0.0,0.0,87,0.00,,---,0.00,VWS V14.01,2013-04-12 07:20:00,
2013-04-12 00:25:00,40.9,37.3,30.18,WNW,283,0.0,0.0,87,0.00,,---,0.00,VWS V14.01,2013-04-12 07:25:00,
2013-04-12 00:30:00,40.7,37.4,30.18,WNW,282,0.0,0.0,88,0.00,,---,0.00,VWS V14.01,2013-04-12 07:30:00,
2013-04-12 00:35:00,40.5,37.2,30.18,WNW,282,0.0,0.0,88,0.00,,---,0.00,VWS V14.01,2013-04-12 07:35:00,
2013-04-12 00:40:00,40.3,37.0,30.17,WNW,283,0.0,0.0,88,0.00,,---,0.00,VWS V14.01,2013-04-12 07:40:00,
2013-04-12 00:45:00,40.1,36.8,30.17,WNW,282,0.0,0.0,88,0.00,,---,0.00,VWS V14.01,2013-04-12 07:45:00,
2013-04-12 00:50:00,39.9,36.9,30.17,WNW,283,0.0,0.0,89,0.00,,---,0.00,VWS V14.01,2013-04-12 07:50:00,
2013-04-12 00:55:00,39.7,36.7,30.17,WNW,283,0.0,0.0,89,0.00,,---,0.00,VWS V14.01,2013-04-12 07:55:00,
2013-04-12 01:00:00,39.5,36.5,30.17,WNW,283,0.0,0.0,89,0.00,,---,0.00,VWS V14.01,2013-04-12 08:00:00,
2013-04-12 01:05:00,39.2,36.2,30.17,WNW,283,0.0,0.0,89,0.00,,---,0.00,VWS V14.01,2013-04-12 08:05:00,
2013-04-12 01:10:00,38.9,35.9,30.17,WNW,283,0.0,0.0,89,0.00,,---,0.00,VWS V14.01,2013-04-12 08:10:00,
2013-04-12 01:15:00,38.8,36.1,30.17,WNW,282,0.0,0.0,90,0.00,,---,0.00,VWS V14.01,2013-04-12 08:15:00,
2013-04-12 01:20:00,38.8,36.4,30.17,WNW,283,0.0,0.0,91,0.00,,---,0.00,VWS V14.01,2013-04-12 08:20:00,
2013-04-12 01:25:00,38.8,36.4,30.17,WNW,283,0.0,0.0,91,0.00,,---,0.00,VWS V14.01,2013-04-12 08:25:00,
2013-04-12 01:30:00,38.8,36.4,30.17,WNW,283,0.0,0.0,91,0.00,,---,0.00,VWS V14.01,2013-04-12 08:30:00,
2013-04-12 01:35:00,38.8,36.4,30.17,WNW,283,0.0,0.0,91,0.00,,---,0.00,VWS V14.01,2013-04-12 08:35:00,
2013-04-12 01:40:00,38.9,36.5,30.16,WNW,283,0.0,0.0,91,0.00,,---,0.00,VWS V14.01,2013-04-12 08:40:00,
2013-04-12 01:45:00,38.9,36.5,30.17,WNW,283,0.0,0.0,91,0.00,,---,0.00,VWS V14.01,2013-04-12 08:45:00,
2013-04-12 01:50:00,39.0,36.9,30.17,WNW,282,0.0,0.0,92,0.00,,---,0.00,VWS V14.01,2013-04-12 08:50:00,
2013-04-12 01:55:00,39.1,37.0,30.16,WNW,282,0.0,0.0,92,0.00,,---,0.00,VWS V14.01,2013-04-12 08:55:00,
2013-04-12 02:00:00,39.2,37.1,30.16,WNW,283,0.0,0.0,92,0.00,,---,0.00,VWS V14.01,2013-04-12 09:00:00,
2013-04-12 02:05:00,39.2,37.1,30.16,WNW,282,0.0,0.0,92,0.00,,---,0.00,VWS V14.01,2013-04-12 09:05:00,
2013-04-12 02:11:00,39.1,37.0,30.16,WNW,282,0.0,0.0,92,0.00,,---,0.00,VWS V14.01,2013-04-12 09:11:00,
2013-04-12 02:15:00,39.0,36.6,30.16,WNW,282,0.0,0.0,91,0.00,,---,0.00,VWS V14.01,2013-04-12 09:15:00,
2013-04-12 02:21:00,38.8,36.7,30.16,WNW,282,0.0,0.0,92,0.00,,---,0.00,VWS V14.01,2013-04-12 09:21:00,
2013-04-12 02:25:00,38.7,36.6,30.16,WNW,283,0.0,0.0,92,0.00,,---,0.00,VWS V14.01,2013-04-12 09:25:00,
2013-04-12 02:31:00,38.6,36.5,30.16,WNW,283,0.0,0.0,92,0.00,,---,0.00,VWS V14.01,2013-04-12 09:31:00,
2013-04-12 02:35:00,38.6,36.8,30.15,WNW,282,0.0,0.0,93,0.00,,---,0.00,VWS V14.01,2013-04-12 09:35:00,
2013-04-12 02:41:00,38.7,36.8,30.15,WNW,282,0.0,0.0,93,0.00,,---,0.00,VWS V14.01,2013-04-12 09:41:00,
2013-04-12 02:46:00,38.7,36.8,30.15,WNW,283,0.0,0.0,93,0.00,,---,0.00,VWS V14.01,2013-04-12 09:46:00,
2013-04-12 02:51:00,38.8,37.0,30.15,WNW,283,0.0,0.0,93,0.00,,---,0.00,VWS V14.01,2013-04-12 09:51:00,
2013-04-12 02:56:00,38.8,37.0,30.15,WNW,282,0.0,0.0,93,0.00,,---,0.00,VWS V14.01,2013-04-12 09:56:00,
2013-04-12 03:00:00,39.2,37.1,30.17,WNW,283,0.0,0.0,92,0.00,,---,0.00,VWS V14.01,2013-04-12 10:00:00,
2013-04-12 03:01:00,38.9,37.0,30.14,WNW,283,0.0,0.0,93,0.00,,---,0.00,VWS V14.01,2013-04-12 10:01:00,
2013-04-12 03:06:00,39.0,37.2,30.15,WNW,283,0.0,0.0,93,0.00,,---,0.00,VWS V14.01,2013-04-12 10:06:00,
2013-04-12 03:11:00,39.0,37.2,30.14,WNW,282,0.0,0.0,93,0.00,,---,0.00,VWS V14.01,2013-04-12 10:11:00,
2013-04-12 03:16:00,39.1,37.2,30.14,WNW,283,0.0,0.0,93,0.00,,---,0.00,VWS V14.01,2013-04-12 10:16:00,
2013-04-12 03:21:00,39.2,37.3,30.14,WNW,283,0.0,0.0,93,0.00,,---,0.00,VWS V14.01,2013-04-12 10:21:00,
2013-04-12 03:26:00,39.2,37.3,30.14,WNW,283,0.0,0.0,93,0.00,,---,0.00,VWS V14.01,2013-04-12 10:26:00,
2013-04-12 03:31:00,39.1,37.2,30.14,WNW,283,0.0,0.0,93,0.00,,---,0.00,VWS V14.01,2013-04-12 10:31:00,
2013-04-12 03:36:00,39.1,37.2,30.13,WNW,283,0.0,0.0,93,0.00,,---,0.00,VWS V14.01,2013-04-12 10:36:00,
2013-04-12 03:41:00,39.1,37.2,30.13,WNW,283,0.0,0.0,93,0.00,,---,0.00,VWS V14.01,2013-04-12 10:41:00,
2013-04-12 03:46:00,39.1,37.2,30.14,WNW,282,0.0,0.0,93,0.00,,---,0.00,VWS V14.01,2013-04-12 10:46:00,
2013-04-12 03:51:00,39.1,37.2,30.13,WNW,283,0.0,0.0,93,0.00,,---,0.00,VWS V14.01,2013-04-12 10:51:00,
2013-04-12 03:56:00,39.2,37.3,30.13,WNW,282,0.0,0.0,93,0.00,,---,0.00,VWS V14.01,2013-04-12 10:56:00,
2013-04-12 04:01:00,39.1,37.2,30.13,WNW,283,0.0,0.0,93,0.00,,---,0.00,VWS V14.01,2013-04-12 11:01:00,
2013-04-12 04:06:00,39.2,37.3,30.13,WNW,282,0.0,0.0,93,0.00,,---,0.00,VWS V14.01,2013-04-12 11:06:00,
2013-04-12 04:11:00,39.2,37.3,30.13,WNW,283,0.0,0.0,93,0.00,,---,0.00,VWS V14.01,2013-04-12 11:11:00,
2013-04-12 04:16:00,39.2,37.3,30.13,WNW,283,0.0,0.0,93,0.00,,---,0.00,VWS V14.01,2013-04-12 11:16:00,
2013-04-12 04:21:00,39.2,37.3,30.13,WNW,282,0.0,0.0,93,0.00,,---,0.00,VWS V14.01,2013-04-12 11:21:00,
2013-04-12 04:27:00,39.2,37.3,30.12,WNW,282,0.0,0.0,93,0.00,,---,0.00,VWS V14.01,2013-04-12 11:27:00,
2013-04-12 04:32:00,39.2,37.3,30.12,WNW,283,0.0,0.0,93,0.00,,---,0.00,VWS V14.01,2013-04-12 11:32:00,
2013-04-12 04:37:00,39.2,37.3,30.12,WNW,283,0.0,0.0,93,0.00,,---,0.00,VWS V14.01,2013-04-12 11:37:00,
2013-04-12 04:42:00,39.2,37.6,30.11,WNW,283,0.0,0.0,94,0.00,,---,0.00,VWS V14.01,2013-04-12 11:42:00,
2013-04-12 04:47:00,39.2,37.6,30.11,WNW,283,0.0,0.0,94,0.00,,---,0.00,VWS V14.01,2013-04-12 11:47:00,
2013-04-12 04:52:00,39.3,37.7,30.11,WNW,283,0.0,0.0,94,0.00,,---,0.00,VWS V14.01,2013-04-12 11:52:00,
2013-04-12 04:57:00,39.3,37.7,30.10,WNW,283,0.0,0.0,94,0.00,,---,0.00,VWS V14.01,2013-04-12 11:57:00,
2013-04-12 05:00:00,39.1,37.2,30.13,WNW,283,0.0,0.0,93,0.00,,---,0.00,VWS V14.01,2013-04-12 12:00:00,
2013-04-12 05:02:00,39.2,37.6,30.10,WNW,283,0.0,0.0,94,0.00,,---,0.00,VWS V14.01,2013-04-12 12:02:00,
2013-04-12 05:07:00,39.2,37.6,30.09,WNW,283,0.0,0.0,94,0.00,,---,0.00,VWS V14.01,2013-04-12 12:07:00,
2013-04-12 05:12:00,39.2,37.6,30.09,WNW,282,0.0,0.0,94,0.00,,---,0.00,VWS V14.01,2013-04-12 12:12:00,
2013-04-12 05:17:00,39.2,37.6,30.08,WNW,283,0.0,0.0,94,0.00,,---,0.00,VWS V14.01,2013-04-12 12:17:00,
2013-04-12 05:22:00,39.2,37.6,30.08,WNW,283,0.0,0.0,94,0.00,,---,0.00,VWS V14.01,2013-04-12 12:22:00,
2013-04-12 05:27:00,39.2,37.6,30.07,WNW,283,0.0,0.0,94,0.00,,---,0.00,VWS V14.01,2013-04-12 12:27:00,
2013-04-12 05:32:00,39.1,37.5,30.07,WNW,283,0.0,0.0,94,0.00,,---,0.00,VWS V14.01,2013-04-12 12:32:00,
2013-04-12 05:37:00,39.1,37.5,30.07,WNW,283,0.0,0.0,94,0.00,,---,0.00,VWS V14.01,2013-04-12 12:37:00,
2013-04-12 05:42:00,39.2,37.6,30.07,WNW,283,0.0,0.0,94,0.00,,---,0.00,VWS V14.01,2013-04-12 12:42:00,
2013-04-12 05:47:00,39.2,37.6,30.07,WNW,282,0.0,0.0,94,0.00,,---,0.00,VWS V14.01,2013-04-12 12:47:00,
2013-04-12 05:52:00,39.2,37.6,30.06,WNW,283,0.0,0.0,94,0.00,,---,0.00,VWS V14.01,2013-04-12 12:52:00,
2013-04-12 05:57:00,39.2,37.6,30.06,WNW,283,0.0,0.0,94,0.00,,---,0.00,VWS V14.01,2013-04-12 12:57:00,
2013-04-12 06:02:00,39.2,37.6,30.06,WNW,283,0.0,0.0,94,0.00,,---,0.00,VWS V14.01,2013-04-12 13:02:00,
2013-04-12 06:07:00,39.1,37.5,30.06,WNW,283,0.0,0.0,94,0.00,,---,0.00,VWS V14.01,2013-04-12 13:07:00,
2013-04-12 06:12:00,39.0,37.4,30.05,WNW,283,0.0,0.0,94,0.00,,---,0.00,VWS V14.01,2013-04-12 13:12:00,
2013-04-12 06:17:00,38.9,37.3,30.05,WNW,282,0.0,0.0,94,0.00,,---,0.00,VWS V14.01,2013-04-12 13:17:00,
2013-04-12 06:22:00,38.9,37.3,30.05,WNW,283,0.0,0.0,94,0.00,,---,0.00,VWS V14.01,2013-04-12 13:22:00,
2013-04-12 06:27:00,38.9,37.3,30.05,WNW,283,0.0,0.0,94,0.00,,---,0.00,VWS V14.01,2013-04-12 13:27:00,
2013-04-12 06:32:00,38.9,37.6,30.05,WNW,283,0.0,0.0,95,0.00,,---,0.00,VWS V14.01,2013-04-12 13:32:00,
2013-04-12 06:37:00,39.0,37.7,30.05,WNW,282,0.0,0.0,95,0.00,,---,0.00,VWS V14.01,2013-04-12 13:37:00,
2013-04-12 06:42:00,39.2,37.9,30.05,WNW,283,0.0,0.0,95,0.00,,---,0.00,VWS V14.01,2013-04-12 13:42:00,
2013-04-12 06:47:00,39.3,38.0,30.05,WNW,282,0.0,0.0,95,0.00,,---,0.00,VWS V14.01,2013-04-12 13:47:00,
2013-04-12 06:52:00,39.4,37.8,30.05,WNW,283,0.0,0.0,94,0.00,,---,0.00,VWS V14.01,2013-04-12 13:52:00,
2013-04-12 06:57:00,39.5,37.9,30.05,WNW,283,0.0,0.0,94,0.00,,---,0.00,VWS V14.01,2013-04-12 13:57:00,
2013-04-12 07:00:00,39.2,37.6,30.06,WNW,282,0.0,0.0,94,0.00,,---,0.00,VWS V14.01,2013-04-12 14:00:00,
2013-04-12 07:02:00,39.6,38.0,30.05,WNW,283,0.0,0.0,94,0.00,,---,0.00,VWS V14.01,2013-04-12 14:02:00,
2013-04-12 07:07:00,39.6,38.0,30.04,WNW,282,0.0,0.0,94,0.00,,---,0.00,VWS V14.01,2013-04-12 14:07:00,
2013-04-12 07:12:00,39.7,38.1,30.04,WNW,283,0.0,0.0,94,0.00,,---,0.00,VWS V14.01,2013-04-12 14:12:00,
2013-04-12 07:17:00,39.7,38.1,30.04,WNW,283,0.0,0.0,94,0.00,,---,0.00,VWS V14.01,2013-04-12 14:17:00,
2013-04-12 07:23:00,39.7,38.1,30.04,WNW,283,0.0,0.0,94,0.00,,---,0.00,VWS V14.01,2013-04-12 14:23:00,
2013-04-12 07:28:00,39.8,38.2,30.03,WNW,283,0.0,0.0,94,0.00,,---,0.00,VWS V14.01,2013-04-12 14:28:00,
2013-04-12 07:33:00,39.8,38.2,30.03,WNW,283,0.0,0.0,94,0.00,,---,0.00,VWS V14.01,2013-04-12 14:33:00,
2013-04-12 07:38:00,40.0,38.4,30.03,WNW,282,0.0,0.0,94,0.00,,---,0.00,VWS V14.01,2013-04-12 14:38:00,
2013-04-12 07:43:00,40.2,38.6,30.03,WNW,282,0.0,0.0,94,0.00,,---,0.00,VWS V14.01,2013-04-12 14:43:00,
2013-04-12 07:48:00,40.5,38.9,30.02,WNW,283,0.0,0.0,94,0.00,,---,0.00,VWS V14.01,2013-04-12 14:48:00,
2013-04-12 07:53:00,40.8,38.9,30.02,West,277,0.0,0.0,93,0.00,,---,0.00,VWS V14.01,2013-04-12 14:53:00,
2013-04-12 07:58:00,41.2,39.1,30.02,SE,124,0.0,0.0,92,0.00,,---,0.00,VWS V14.01,2013-04-12 14:58:00,
2013-04-12 08:03:00,41.5,39.3,30.02,SE,124,0.0,0.0,92,0.00,,---,0.00,VWS V14.01,2013-04-12 15:03:00,
2013-04-12 08:08:00,41.8,39.7,30.01,SE,124,0.0,1.0,92,0.00,,---,0.00,VWS V14.01,2013-04-12 15:08:00,
2013-04-12 08:13:00,42.1,40.0,30.01,ENE,72,0.0,1.0,92,0.00,,---,0.00,VWS V14.01,2013-04-12 15:13:00,
2013-04-12 08:18:00,42.3,40.2,30.01,ENE,72,0.0,1.0,92,0.00,,---,0.00,VWS V14.01,2013-04-12 15:18:00,
2013-04-12 08:23:00,42.6,40.4,30.01,ENE,72,0.0,1.0,92,0.00,,---,0.00,VWS V14.01,2013-04-12 15:23:00,
2013-04-12 08:28:00,42.8,40.6,30.00,ENE,72,0.0,1.0,92,0.00,,---,0.00,VWS V14.01,2013-04-12 15:28:00,
2013-04-12 08:33:00,43.0,40.8,30.01,ENE,72,0.0,1.0,92,0.00,,---,0.00,VWS V14.01,2013-04-12 15:33:00,
2013-04-12 08:38:00,43.3,40.8,30.01,ENE,72,0.0,1.0,91,0.00,,---,0.00,VWS V14.01,2013-04-12 15:38:00,
2013-04-12 08:43:00,43.4,41.0,30.01,ENE,72,0.0,1.0,91,0.00,,---,0.00,VWS V14.01,2013-04-12 15:43:00,
2013-04-12 08:48:00,43.6,40.9,30.01,ENE,72,0.0,1.0,90,0.00,,---,0.00,VWS V14.01,2013-04-12 15:48:00,
2013-04-12 08:53:00,43.7,41.2,30.01,ENE,72,0.0,1.0,91,0.00,,---,0.00,VWS V14.01,2013-04-12 15:53:00,
2013-04-12 08:58:00,43.8,41.1,30.00,ENE,72,0.0,2.0,90,0.00,,---,0.00,VWS V14.01,2013-04-12 15:58:00,
2013-04-12 09:00:00,41.3,39.2,30.02,SE,124,0.0,0.0,92,0.00,,---,0.00,VWS V14.01,2013-04-12 16:00:00,
2013-04-12 09:03:00,43.8,41.1,30.00,ENE,72,0.0,2.0,90,0.00,,---,0.00,VWS V14.01,2013-04-12 16:03:00,
2013-04-12 09:08:00,43.9,41.2,30.00,East,81,0.0,2.0,90,0.00,,---,0.00,VWS V14.01,2013-04-12 16:08:00,
2013-04-12 09:13:00,44.1,41.4,30.00,East,81,0.0,2.0,90,0.00,,---,0.00,VWS V14.01,2013-04-12 16:13:00,
2013-04-12 09:18:00,44.1,41.1,30.00,East,81,0.0,2.0,89,0.00,,---,0.00,VWS V14.01,2013-04-12 16:18:00,
2013-04-12 09:23:00,44.2,41.2,30.00,East,80,0.0,2.0,89,0.00,,---,0.00,VWS V14.01,2013-04-12 16:23:00,
2013-04-12 09:28:00,44.2,41.2,29.99,NE,52,0.0,2.0,89,0.00,,---,0.00,VWS V14.01,2013-04-12 16:28:00,
2013-04-12 09:33:00,44.2,40.9,29.99,West,264,0.0,2.0,88,0.00,,---,0.00,VWS V14.01,2013-04-12 16:33:00,
2013-04-12 09:38:00,44.2,41.2,29.99,West,264,0.0,2.0,89,0.00,,---,0.00,VWS V14.01,2013-04-12 16:38:00,
2013-04-12 09:43:00,44.3,41.0,29.99,East,83,0.0,2.0,88,0.00,,---,0.00,VWS V14.01,2013-04-12 16:43:00,
2013-04-12 09:48:00,44.5,41.2,29.98,East,84,0.0,2.0,88,0.00,,---,0.00,VWS V14.01,2013-04-12 16:48:00,
2013-04-12 09:53:00,44.6,41.3,29.98,NNE,27,0.0,2.0,88,0.00,,---,0.00,VWS V14.01,2013-04-12 16:53:00,
2013-04-12 09:58:00,44.8,41.5,29.98,NNE,27,0.0,2.0,88,0.00,,---,0.00,VWS V14.01,2013-04-12 16:58:00,
2013-04-12 10:03:00,45.1,41.5,29.97,NNE,27,0.0,0.0,87,0.00,,---,0.00,VWS V14.01,2013-04-12 17:03:00,
2013-04-12 10:08:00,45.2,41.6,29.97,WNW,288,0.0,1.0,87,0.00,,---,0.00,VWS V14.01,2013-04-12 17:08:00,
2013-04-12 10:13:00,45.4,41.8,29.97,WNW,288,0.0,1.0,87,0.00,,---,0.00,VWS V14.01,2013-04-12 17:13:00,
2013-04-12 10:18:00,45.3,41.4,29.97,ENE,77,0.0,2.0,86,0.00,,---,0.00,VWS V14.01,2013-04-12 17:18:00,
2013-04-12 10:23:00,45.4,41.8,29.97,ENE,77,0.0,2.0,87,0.00,,---,0.00,VWS V14.01,2013-04-12 17:23:00,
2013-04-12 10:28:00,45.5,41.6,29.96,ENE,77,0.0,2.0,86,0.00,,---,0.00,VWS V14.01,2013-04-12 17:28:00,
2013-04-12 10:33:00,45.6,41.7,29.96,NE,51,0.0,2.0,86,0.00,,---,0.00,VWS V14.01,2013-04-12 17:33:00,
2013-04-12 10:38:00,45.7,41.8,29.96,NE,51,0.0,2.0,86,0.00,,---,0.00,VWS V14.01,2013-04-12 17:38:00,
2013-04-12 10:43:00,45.8,41.5,29.96,NE,44,0.0,2.0,85,0.00,,---,0.00,VWS V14.01,2013-04-12 17:43:00,
2013-04-12 10:48:00,46.0,41.8,29.96,NE,44,0.0,2.0,85,0.00,,---,0.00,VWS V14.01,2013-04-12 17:48:00,
2013-04-12 10:53:00,46.0,41.4,29.96,NNE,32,0.0,2.0,84,0.00,,---,0.00,VWS V14.01,2013-04-12 17:53:00,
2013-04-12 10:58:00,46.1,41.2,29.96,NNE,31,0.0,2.0,83,0.00,,---,0.00,VWS V14.01,2013-04-12 17:58:00,
2013-04-12 11:00:00,44.9,41.6,29.98,NNE,27,0.0,2.0,88,0.00,,---,0.00,VWS V14.01,2013-04-12 18:00:00,
2013-04-12 11:03:00,46.1,40.6,29.96,NNE,31,0.0,2.0,81,0.00,,---,0.00,VWS V14.01,2013-04-12 18:03:00,
2013-04-12 11:08:00,46.1,40.3,29.96,ESE,102,0.0,2.0,80,0.00,,---,0.00,VWS V14.01,2013-04-12 18:08:00,
2013-04-12 11:13:00,46.1,40.6,29.96,SW,217,0.0,2.0,81,0.00,,---,0.00,VWS V14.01,2013-04-12 18:13:00,
2013-04-12 11:19:00,46.1,40.3,29.96,SW,217,0.0,2.0,80,0.00,,---,0.00,VWS V14.01,2013-04-12 18:19:00,
2013-04-12 11:24:00,46.1,40.0,29.96,SW,218,0.0,2.0,79,0.00,,---,0.00,VWS V14.01,2013-04-12 18:24:00,
2013-04-12 11:29:00,46.2,40.4,29.96,SSW,201,0.0,2.0,80,0.00,,---,0.00,VWS V14.01,2013-04-12 18:29:00,
2013-04-12 12:26:00,46.3,39.8,29.93,ENE,58,0.0,2.0,78,0.00,,---,0.00,VWS V14.01,2013-04-12 19:26:00,
2013-04-12 12:31:00,46.4,39.6,29.92,SSE,148,0.0,4.0,77,0.00,,---,0.00,VWS V14.01,2013-04-12 19:31:00,
2013-04-12 12:36:00,46.5,39.0,29.92,SW,217,0.0,4.0,75,0.00,,---,0.00,VWS V14.01,2013-04-12 19:36:00,
2013-04-12 12:41:00,46.5,38.7,29.92,SSW,192,0.0,4.0,74,0.00,,---,0.00,VWS V14.01,2013-04-12 19:41:00,
2013-04-12 12:46:00,46.5,38.3,29.92,SW,221,1.0,4.0,73,0.00,,---,0.00,VWS V14.01,2013-04-12 19:46:00,
2013-04-12 12:51:00,46.4,38.9,29.92,North,11,0.0,4.0,75,0.00,,---,0.00,VWS V14.01,2013-04-12 19:51:00,
2013-04-12 12:56:00,46.5,38.7,29.91,North,6,0.0,4.0,74,0.00,,---,0.00,VWS V14.01,2013-04-12 19:56:00,
2013-04-12 13:00:00,46.3,39.8,29.94,SW,221,0.0,2.0,78,0.00,,---,0.00,VWS V14.01,2013-04-12 20:00:00,
2013-04-12 13:02:00,46.5,39.0,29.91,North,1,0.0,4.0,75,0.00,,---,0.00,VWS V14.01,2013-04-12 20:02:00,
2013-04-12 13:07:00,46.5,39.0,29.91,NE,41,0.0,4.0,75,0.00,,---,0.00,VWS V14.01,2013-04-12 20:07:00,
2013-04-12 13:12:00,46.4,38.2,29.91,SW,226,0.0,4.0,73,0.00,,---,0.00,VWS V14.01,2013-04-12 20:12:00,
2013-04-12 13:17:00,46.4,39.3,29.91,SSW,195,0.0,4.0,76,0.00,,---,0.00,VWS V14.01,2013-04-12 20:17:00,
2013-04-12 13:22:00,46.2,38.7,29.91,WSW,239,2.0,5.0,75,0.00,,---,0.00,VWS V14.01,2013-04-12 20:22:00,
2013-04-12 13:27:00,45.7,38.6,29.91,ESE,113,0.0,5.0,76,0.00,,---,0.00,VWS V14.01,2013-04-12 20:27:00,
2013-04-12 13:32:00,45.1,39.3,29.91,ENE,60,1.0,5.0,80,0.00,,---,0.00,VWS V14.01,2013-04-12 20:32:00,
2013-04-12 13:37:00,44.5,39.7,29.90,SSE,149,0.0,5.0,83,0.00,,---,0.00,VWS V14.01,2013-04-12 20:37:00,
2013-04-12 13:42:00,44.0,39.8,29.90,East,97,0.0,5.0,85,0.00,,---,0.00,VWS V14.01,2013-04-12 20:42:00,
2013-04-12 13:47:00,43.6,39.7,29.90,East,99,0.0,5.0,86,0.00,,---,0.00,VWS V14.01,2013-04-12 20:47:00,
2013-04-12 13:52:00,43.3,39.7,29.90,ENE,64,0.0,5.0,87,0.01,,---,0.01,VWS V14.01,2013-04-12 20:52:00,
2013-04-12 13:57:00,42.9,39.6,29.90,ENE,64,0.0,5.0,88,0.01,,---,0.01,VWS V14.01,2013-04-12 20:57:00,
2013-04-12 14:02:00,42.7,39.7,29.89,ENE,64,0.0,0.0,89,0.00,,---,0.01,VWS V14.01,2013-04-12 21:02:00,
2013-04-12 14:07:00,42.5,39.8,29.89,SSW,211,0.0,1.0,90,0.01,,---,0.02,VWS V14.01,2013-04-12 21:07:00,
2013-04-12 14:12:00,42.3,39.6,29.89,West,259,0.0,1.0,90,0.01,,---,0.02,VWS V14.01,2013-04-12 21:12:00,
2013-04-12 14:17:00,42.1,39.7,29.89,SW,226,0.0,1.0,91,0.01,,---,0.02,VWS V14.01,2013-04-12 21:17:00,
2013-04-12 14:22:00,42.1,39.7,29.89,SW,226,0.0,1.0,91,0.01,,---,0.02,VWS V14.01,2013-04-12 21:22:00,
2013-04-12 14:27:00,42.0,39.8,29.89,NE,37,0.0,1.0,92,0.01,,---,0.02,VWS V14.01,2013-04-12 21:27:00,
2013-04-12 14:32:00,42.0,39.8,29.88,NE,39,0.0,1.0,92,0.01,,---,0.02,VWS V14.01,2013-04-12 21:32:00,
2013-04-12 14:37:00,42.0,39.8,29.88,NE,35,0.0,1.0,92,0.01,,---,0.02,VWS V14.01,2013-04-12 21:37:00,
2013-04-12 14:42:00,41.9,39.8,29.88,East,89,0.0,1.0,92,0.01,,---,0.02,VWS V14.01,2013-04-12 21:42:00,
2013-04-12 14:47:00,42.0,39.8,29.87,ESE,102,0.0,1.0,92,0.02,,---,0.03,VWS V14.01,2013-04-12 21:47:00,
2013-04-12 14:52:00,41.9,39.8,29.87,West,259,0.0,1.0,92,0.02,,---,0.03,VWS V14.01,2013-04-12 21:52:00,
2013-04-12 14:57:00,41.9,39.8,29.87,NE,54,0.0,1.0,92,0.03,,---,0.04,VWS V14.01,2013-04-12 21:57:00,
2013-04-12 15:02:00,41.9,39.8,29.87,SW,224,0.0,1.0,92,0.03,,---,0.04,VWS V14.01,2013-04-12 22:02:00,
2013-04-12 15:07:00,41.9,39.8,29.86,NNE,27,0.0,1.0,92,0.04,,---,0.05,VWS V14.01,2013-04-12 22:07:00,
2013-04-12 15:12:00,41.9,40.0,29.87,ENE,69,0.0,1.0,93,0.04,,---,0.05,VWS V14.01,2013-04-12 22:12:00,
2013-04-12 15:17:00,41.9,40.0,29.86,WNW,293,0.0,4.0,93,0.05,,---,0.06,VWS V14.01,2013-04-12 22:17:00,
2013-04-12 15:22:00,41.9,40.0,29.86,NNW,341,0.0,4.0,93,0.06,,---,0.07,VWS V14.01,2013-04-12 22:22:00,
2013-04-12 15:27:00,41.9,40.0,29.86,ENE,58,0.0,4.0,93,0.06,,---,0.07,VWS V14.01,2013-04-12 22:27:00,
2013-04-12 15:32:00,41.9,40.0,29.85,ENE,60,0.0,4.0,93,0.07,,---,0.08,VWS V14.01,2013-04-12 22:32:00,
2013-04-12 15:37:00,42.0,40.4,29.85,ENE,58,0.0,4.0,94,0.07,,---,0.08,VWS V14.01,2013-04-12 22:37:00,
2013-04-12 15:42:00,41.9,40.3,29.85,SE,136,0.0,4.0,94,0.08,,---,0.09,VWS V14.01,2013-04-12 22:42:00,
2013-04-12 15:47:00,42.0,40.4,29.84,SE,136,0.0,4.0,94,0.08,,---,0.09,VWS V14.01,2013-04-12 22:47:00,
2013-04-12 15:52:00,42.0,40.4,29.83,East,82,0.0,4.0,94,0.09,,---,0.10,VWS V14.01,2013-04-12 22:52:00,
2013-04-12 15:57:00,42.1,40.5,29.83,NNE,20,2.0,4.0,94,0.10,,---,0.11,VWS V14.01,2013-04-12 22:57:00,
2013-04-12 16:02:00,42.2,40.6,29.83,East,82,0.0,1.0,94,0.00,,---,0.11,VWS V14.01,2013-04-12 23:02:00,
2013-04-12 16:07:00,42.3,41.0,29.82,East,82,0.0,1.0,95,0.00,,---,0.11,VWS V14.01,2013-04-12 23:07:00,
2013-04-12 16:12:00,42.3,41.0,29.82,ENE,74,0.0,1.0,95,0.01,,---,0.12,VWS V14.01,2013-04-12 23:12:00,
2013-04-12 16:17:00,42.3,40.7,29.81,ENE,75,0.0,1.0,94,0.01,,---,0.12,VWS V14.01,2013-04-12 23:17:00,
2013-04-12 16:22:00,42.3,40.7,29.81,North,359,0.0,1.0,94,0.01,,---,0.12,VWS V14.01,2013-04-12 23:22:00,
2013-04-12 16:27:00,42.2,40.6,29.81,SW,218,0.0,1.0,94,0.01,,---,0.12,VWS V14.01,2013-04-12 23:27:00,
2013-04-12 16:32:00,42.1,40.5,29.80,WNW,300,0.0,2.0,94,0.01,,---,0.12,VWS V14.01,2013-04-12 23:32:00,
2013-04-12 16:37:00,42.1,40.5,29.80,WNW,299,0.0,2.0,94,0.01,,---,0.12,VWS V14.01,2013-04-12 23:37:00,
2013-04-12 16:42:00,42.1,40.5,29.80,ENE,75,0.0,2.0,94,0.01,,---,0.12,VWS V14.01,2013-04-12 23:42:00,
2013-04-12 16:47:00,42.1,40.5,29.80,SW,228,0.0,2.0,94,0.01,,---,0.12,VWS V14.01,2013-04-12 23:47:00,
2013-04-12 16:52:00,42.1,40.8,29.80,South,172,0.0,2.0,95,0.01,,---,0.12,VWS V14.01,2013-04-12 23:52:00,
2013-04-12 16:57:00,42.1,40.8,29.80,South,172,0.0,2.0,95,0.01,,---,0.12,VWS V14.01,2013-04-12 23:57:00,
2013-04-12 17:02:00,42.1,40.8,29.79,WSW,237,0.0,2.0,95,0.01,,---,0.12,VWS V14.01,2013-04-13 00:02:00,
2013-04-12 17:07:00,42.1,40.8,29.79,SW,236,0.0,2.0,95,0.01,,---,0.12,VWS V14.01,2013-04-13 00:07:00,
2013-04-12 17:12:00,42.1,40.8,29.79,NE,43,0.0,2.0,95,0.01,,---,0.12,VWS V14.01,2013-04-13 00:12:00,
2013-04-12 17:17:00,42.0,40.7,29.79,NNE,30,0.0,2.0,95,0.01,,---,0.12,VWS V14.01,2013-04-13 00:17:00,
2013-04-12 17:22:00,42.0,40.7,29.78,NNE,30,0.0,2.0,95,0.01,,---,0.12,VWS V14.01,2013-04-13 00:22:00,
2013-04-12 17:27:00,42.0,40.7,29.78,ENE,65,0.0,2.0,95,0.01,,---,0.12,VWS V14.01,2013-04-13 00:27:00,
2013-04-12 17:32:00,42.0,40.7,29.77,North,352,0.0,2.0,95,0.01,,---,0.12,VWS V14.01,2013-04-13 00:32:00,
2013-04-12 17:37:00,42.0,40.7,29.77,NE,47,0.0,2.0,95,0.01,,---,0.12,VWS V14.01,2013-04-13 00:37:00,
2013-04-12 17:42:00,42.0,40.7,29.76,NNW,335,0.0,2.0,95,0.01,,---,0.12,VWS V14.01,2013-04-13 00:42:00,
2013-04-12 17:47:00,42.0,40.7,29.76,NNW,329,0.0,2.0,95,0.01,,---,0.12,VWS V14.01,2013-04-13 00:47:00,
2013-04-12 17:52:00,42.1,40.8,29.76,WNW,302,0.0,2.0,95,0.01,,---,0.12,VWS V14.01,2013-04-13 00:52:00,
2013-04-12 17:57:00,42.1,40.8,29.76,NNW,331,0.0,2.0,95,0.01,,---,0.12,VWS V14.01,2013-04-13 00:57:00,
2013-04-12 18:02:00,42.1,40.8,29.76,WSW,249,0.0,0.0,95,0.00,,---,0.12,VWS V14.01,2013-04-13 01:02:00,
2013-04-12 18:07:00,42.2,40.9,29.75,ESE,114,0.0,0.0,95,0.00,,---,0.12,VWS V14.01,2013-04-13 01:07:00,
2013-04-12 18:12:00,42.2,40.9,29.75,ENE,69,0.0,1.0,95,0.00,,---,0.12,VWS V14.01,2013-04-13 01:12:00,
2013-04-12 18:17:00,42.3,41.0,29.75,SSW,207,1.0,3.0,95,0.00,,---,0.12,VWS V14.01,2013-04-13 01:17:00,
2013-04-12 18:22:00,42.4,41.1,29.75,NE,34,0.0,3.0,95,0.00,,---,0.12,VWS V14.01,2013-04-13 01:22:00,
2013-04-12 18:27:00,42.5,40.9,29.74,ESE,108,0.0,3.0,94,0.00,,---,0.12,VWS V14.01,2013-04-13 01:27:00,
2013-04-12 18:32:00,42.5,40.9,29.74,SW,229,0.0,3.0,94,0.00,,---,0.12,VWS V14.01,2013-04-13 01:32:00,
2013-04-12 18:37:00,42.6,41.0,29.74,NE,34,0.0,3.0,94,0.00,,---,0.12,VWS V14.01,2013-04-13 01:37:00,
2013-04-12 18:42:00,42.6,41.0,29.73,East,79,0.0,3.0,94,0.00,,---,0.12,VWS V14.01,2013-04-13 01:42:00,
2013-04-12 18:47:00,42.6,41.0,29.73,SSW,205,0.0,3.0,94,0.00,,---,0.12,VWS V14.01,2013-04-13 01:47:00,
2013-04-12 18:52:00,42.6,41.0,29.73,ENE,64,2.0,3.0,94,0.00,,---,0.12,VWS V14.01,2013-04-13 01:52:00,
2013-04-12 18:57:00,42.7,40.8,29.73,NE,37,0.0,3.0,93,0.00,,---,0.12,VWS V14.01,2013-04-13 01:57:00,
2013-04-12 19:00:00,42.1,40.8,29.76,WSW,249,0.0,2.0,95,0.01,,---,0.12,VWS V14.01,2013-04-13 02:00:00,
2013-04-12 19:02:00,42.7,40.8,29.72,ENE,60,0.0,3.0,93,0.00,,---,0.12,VWS V14.01,2013-04-13 02:02:00,
2013-04-12 19:07:00,42.8,40.9,29.72,South,176,0.0,3.0,93,0.00,,---,0.12,VWS V14.01,2013-04-13 02:07:00,
2013-04-12 19:12:00,42.8,40.9,29.72,East,81,0.0,3.0,93,0.00,,---,0.12,VWS V14.01,2013-04-13 02:12:00,
2013-04-12 19:17:00,42.8,40.9,29.71,ESE,103,0.0,3.0,93,0.00,,---,0.12,VWS V14.01,2013-04-13 02:17:00,
2013-04-12 19:22:00,42.7,40.8,29.71,SE,124,0.0,3.0,93,0.00,,---,0.12,VWS V14.01,2013-04-13 02:22:00,
2013-04-12 19:27:00,42.7,40.8,29.71,East,90,0.0,3.0,93,0.00,,---,0.12,VWS V14.01,2013-04-13 02:27:00,
2013-04-12 19:32:00,42.7,40.8,29.71,West,259,0.0,3.0,93,0.00,,---,0.12,VWS V14.01,2013-04-13 02:32:00,
2013-04-12 19:38:00,42.7,40.8,29.71,SSW,210,0.0,3.0,93,0.00,,---,0.12,VWS V14.01,2013-04-13 02:38:00,
2013-04-12 19:43:00,42.7,40.8,29.71,SSW,196,0.0,3.0,93,0.00,,---,0.12,VWS V14.01,2013-04-13 02:43:00,
2013-04-12 19:48:00,42.7,40.8,29.70,South,173,0.0,3.0,93,0.00,,---,0.12,VWS V14.01,2013-04-13 02:48:00,
2013-04-12 19:53:00,42.7,40.8,29.70,NE,47,0.0,3.0,93,0.00,,---,0.12,VWS V14.01,2013-04-13 02:53:00,
2013-04-12 19:58:00,42.8,40.9,29.69,SSW,204,0.0,3.0,93,0.00,,---,0.12,VWS V14.01,2013-04-13 02:58:00,
2013-04-12 20:03:00,42.8,40.9,29.69,SW,221,0.0,1.0,93,0.00,,---,0.12,VWS V14.01,2013-04-13 03:03:00,
2013-04-12 20:08:00,42.8,40.9,29.68,SSW,203,0.0,1.0,93,0.00,,---,0.12,VWS V14.01,2013-04-13 03:08:00,
2013-04-12 20:13:00,42.8,40.9,29.67,SE,143,0.0,1.0,93,0.00,,---,0.12,VWS V14.01,2013-04-13 03:13:00,
2013-04-12 20:18:00,42.8,40.9,29.67,SSW,197,0.0,2.0,93,0.00,,---,0.12,VWS V14.01,2013-04-13 03:18:00,
2013-04-12 20:23:00,42.8,40.9,29.67,SW,218,0.0,2.0,93,0.00,,---,0.12,VWS V14.01,2013-04-13 03:23:00,
2013-04-12 20:28:00,42.9,40.7,29.67,WSW,243,0.0,2.0,92,0.00,,---,0.12,VWS V14.01,2013-04-13 03:28:00,
2013-04-12 20:33:00,43.1,40.9,29.67,ENE,72,0.0,6.0,92,0.00,,---,0.12,VWS V14.01,2013-04-13 03:33:00,
2013-04-12 20:38:00,43.2,41.0,29.67,NE,46,1.0,6.0,92,0.00,,---,0.12,VWS V14.01,2013-04-13 03:38:00,
2013-04-12 20:43:00,43.2,41.3,29.67,ENE,72,0.0,6.0,93,0.00,,---,0.12,VWS V14.01,2013-04-13 03:43:00,
2013-04-12 20:48:00,43.2,41.3,29.67,NNW,335,0.0,6.0,93,0.00,,---,0.12,VWS V14.01,2013-04-13 03:48:00,
2013-04-12 20:53:00,43.2,41.3,29.67,SSW,201,0.0,6.0,93,0.00,,---,0.12,VWS V14.01,2013-04-13 03:53:00,
2013-04-12 20:58:00,43.3,41.1,29.67,SW,226,0.0,6.0,92,0.00,,---,0.12,VWS V14.01,2013-04-13 03:58:00,
2013-04-12 21:00:00,43.4,41.2,29.67,SW,226,0.0,6.0,92,0.00,,---,0.12,VWS V14.01,2013-04-13 04:00:00,
2013-04-12 21:05:00,43.6,41.2,29.67,East,82,0.0,6.0,91,0.00,,---,0.12,VWS V14.01,2013-04-13 04:05:00,
2013-04-12 21:10:00,43.8,41.3,29.67,ENE,64,0.0,6.0,91,0.00,,---,0.12,VWS V14.01,2013-04-13 04:10:00,
2013-04-12 21:15:00,43.9,41.5,29.67,ENE,64,0.0,6.0,91,0.00,,---,0.12,VWS V14.01,2013-04-13 04:15:00,
2013-04-12 21:20:00,43.9,41.7,29.67,SW,226,0.0,6.0,92,0.00,,---,0.12,VWS V14.01,2013-04-13 04:20:00,
2013-04-12 21:25:00,43.8,41.6,29.67,SW,226,0.0,6.0,92,0.00,,---,0.12,VWS V14.01,2013-04-13 04:25:00,
2013-04-12 21:30:00,43.9,41.7,29.67,NE,44,0.0,6.0,92,0.00,,---,0.12,VWS V14.01,2013-04-13 04:30:00,
2013-04-12 21:35:00,43.9,41.7,29.67,NE,44,0.0,6.0,92,0.00,,---,0.12,VWS V14.01,2013-04-13 04:35:00,
2013-04-12 21:40:00,43.9,41.7,29.68,WSW,245,0.0,6.0,92,0.00,,---,0.12,VWS V14.01,2013-04-13 04:40:00,
2013-04-12 21:45:00,43.9,42.0,29.69,WSW,245,0.0,6.0,93,0.00,,---,0.12,VWS V14.01,2013-04-13 04:45:00,
2013-04-12 21:50:00,44.0,42.1,29.69,SW,218,0.0,6.0,93,0.00,,---,0.12,VWS V14.01,2013-04-13 04:50:00,
2013-04-12 21:55:00,44.1,42.2,29.69,SW,226,0.0,6.0,93,0.00,,---,0.12,VWS V14.01,2013-04-13 04:55:00,
2013-04-12 22:00:00,44.2,42.6,29.69,SSW,207,0.0,6.0,94,0.01,,---,0.13,VWS V14.01,2013-04-13 05:00:00,
2013-04-12 22:05:00,44.0,42.1,29.70,WNW,284,0.0,2.0,93,0.00,,---,0.13,VWS V14.01,2013-04-13 05:05:00,
2013-04-12 22:10:00,43.6,41.7,29.70,North,356,0.0,2.0,93,0.01,,---,0.14,VWS V14.01,2013-04-13 05:10:00,
2013-04-12 22:15:00,43.1,41.2,29.70,WNW,289,1.0,2.0,93,0.01,,---,0.14,VWS V14.01,2013-04-13 05:15:00,
2013-04-12 22:20:00,42.8,40.9,29.70,WNW,293,0.0,3.0,93,0.01,,---,0.14,VWS V14.01,2013-04-13 05:20:00,
2013-04-12 22:25:00,42.4,40.5,29.70,WSW,246,1.0,3.0,93,0.01,,---,0.14,VWS V14.01,2013-04-13 05:25:00,
2013-04-12 22:30:00,42.1,40.0,29.70,WNW,302,1.0,3.0,92,0.01,,---,0.14,VWS V14.01,2013-04-13 05:30:00,
2013-04-12 22:35:00,41.8,39.7,29.70,WNW,290,0.0,3.0,92,0.01,,---,0.14,VWS V14.01,2013-04-13 05:35:00,
2013-04-12 22:40:00,41.6,39.7,29.69,WNW,302,1.0,3.0,93,0.01,,---,0.14,VWS V14.01,2013-04-13 05:40:00,
2013-04-12 22:45:00,41.5,39.3,29.70,West,280,1.0,4.0,92,0.01,,---,0.14,VWS V14.01,2013-04-13 05:45:00,
2013-04-12 22:50:00,41.4,39.2,29.70,WNW,290,0.0,4.0,92,0.01,,---,0.14,VWS V14.01,2013-04-13 05:50:00,
2013-04-12 22:55:00,41.3,38.9,29.70,NW,307,0.0,4.0,91,0.01,,---,0.14,VWS V14.01,2013-04-13 05:55:00,
2013-04-12 23:00:00,41.3,38.6,29.70,WNW,288,0.0,4.0,90,0.01,,---,0.14,VWS V14.01,2013-04-13 06:00:00,
2013-04-12 23:05:00,41.3,38.6,29.70,West,274,0.0,4.0,90,0.01,,---,0.14,VWS V14.01,2013-04-13 06:05:00,
2013-04-12 23:10:00,41.3,38.0,29.71,WNW,297,1.0,4.0,88,0.01,,---,0.14,VWS V14.01,2013-04-13 06:10:00,
2013-04-12 23:15:00,41.3,37.4,29.70,WNW,297,1.0,4.0,86,0.01,,---,0.14,VWS V14.01,2013-04-13 06:15:00,
2013-04-12 23:20:00,41.4,37.5,29.70,NNE,12,2.0,5.0,86,0.01,,---,0.14,VWS V14.01,2013-04-13 06:20:00,
2013-04-12 23:25:00,41.5,37.3,29.70,NW,319,0.0,5.0,85,0.01,,---,0.14,VWS V14.01,2013-04-13 06:25:00,
2013-04-12 23:30:00,41.5,37.0,29.70,WNW,302,1.0,5.0,84,0.01,,---,0.14,VWS V14.01,2013-04-13 06:30:00,
2013-04-12 23:35:00,41.5,36.7,29.69,WNW,289,2.0,7.0,83,0.01,,---,0.14,VWS V14.01,2013-04-13 06:35:00,
2013-04-12 23:40:00,41.5,36.4,29.69,NW,314,0.0,7.0,82,0.01,,---,0.14,VWS V14.01,2013-04-13 06:40:00,
2013-04-12 23:45:00,41.3,36.8,29.69,NW,311,2.0,7.0,84,0.01,,---,0.14,VWS V14.01,2013-04-13 06:45:00,
2013-04-12 23:50:00,40.8,36.7,29.69,North,356,1.0,7.0,85,0.01,,---,0.14,VWS V14.01,2013-04-13 06:50:00,
2013-04-12 23:55:00,40.4,36.3,29.69,North,360,2.0,7.0,85,0.01,,---,0.14,VWS V14.01,2013-04-13 06:55:00,